Rutland, VT

2:11 AM EDT on October 20, 2017 (GMT -0400)
Rutland State

Weather History for KRUT - December, 2013

Change the Weather History Date:

Monday, December 16, 2013

  Actual Average Record
Temperature  
Mean Temperature 13 °F -  
Max Temperature 23 °F - 54 °F (1982)
Min Temperature 3 °F - -6 °F (1951)
Degree Days  
Heating Degree Days 52    
Month to date heating degree days 634  
Since 1 July heating degree days 2354  
Cooling Degree Days 0    
Month to date cooling degree days 0  
Year to date cooling degree days 449  
Moisture  
Dew Point 3 °F    
Average Humidity 60    
Maximum Humidity 77    
Minimum Humidity 43    
Precipitation  
Precipitation 0.00 in - 1.38 in (1982)
Month to date precipitation 0.40  
Year to date precipitation 23.89  
Sea Level Pressure  
Sea Level Pressure 29.93 in    
Wind  
Wind Speed 9 mph (WNW)    
Max Wind Speed 14 mph    
Max Gust Speed 23 mph    
Visibility 10 miles    
Events      
T = Trace of Precipitation, MM = Missing Value Source: NWS Daily Summary

Daily Weather History Graph

Daily Weather History Graph

Search for Another Location

Airport or City:

Trip Planner

Search our weather history database for the weather conditions in past years. The results will help you decide how hot, cold, wet, or windy it might be!

Date:

Astronomy

Dec. 16, 2013 Rise Set
Actual Time 7:18 AM EST 4:16 PM EST
Civil Twilight 6:46 AM EST 4:49 PM EST
Nautical Twilight 6:09 AM EST 5:25 PM EST
Astronomical Twilight 5:34 AM EST 6:00 PM EST
Moon 4:06 PM EST (12/16) 6:23 AM EST (12/16)
Length of Visible Light 10h 03m
Length of Day
8h 57m
Full, 100% of the Moon is Illuminated
Dec 16
Full
Dec 17
Full
Dec 25
Last Quarter
Jan 1
New
Jan 7
First Quarter

Hourly Weather History & Observations

Time (EST) Temp. Windchill Dew Point Humidity Pressure Visibility Wind Dir Wind Speed Gust Speed Precip Events Conditions
12:15 AM 21.2 °F 10.9 °F 15.8 °F 80% 29.67 in 10.0 mi West 9.2 mph - N/A   Overcast
12:35 AM 21.2 °F 14.9 °F 15.8 °F 80% 29.67 in 10.0 mi WSW 4.6 mph - N/A   Overcast
12:55 AM 21.2 °F 12.6 °F 15.8 °F 80% 29.68 in 5.0 mi WSW 6.9 mph - N/A   Overcast
1:15 AM 21.2 °F 12.6 °F 15.8 °F 80% 29.67 in 10.0 mi SW 6.9 mph - N/A   Overcast
1:35 AM 21.2 °F 11.7 °F 15.8 °F 80% 29.68 in 10.0 mi WSW 8.1 mph 16.1 mph N/A   Overcast
1:55 AM 21.2 °F 13.6 °F 15.8 °F 80% 29.69 in 10.0 mi West 5.8 mph - N/A   Overcast
2:15 AM 21.2 °F 7.8 °F 14.0 °F 74% 29.70 in 10.0 mi WSW 15.0 mph 21.9 mph N/A   Overcast
2:35 AM 21.2 °F 7.3 °F 14.0 °F 74% 29.70 in 10.0 mi SW 16.1 mph 24.2 mph N/A   Mostly Cloudy
2:55 AM 21.2 °F 8.9 °F 12.2 °F 68% 29.71 in 10.0 mi WSW 12.7 mph 23.0 mph N/A   Partly Cloudy
3:15 AM 21.2 °F 7.3 °F 12.2 °F 68% 29.71 in 10.0 mi WSW 16.1 mph 24.2 mph N/A   Scattered Clouds
3:35 AM 21.2 °F 10.9 °F 12.2 °F 68% 29.72 in 10.0 mi WSW 9.2 mph 19.6 mph N/A   Partly Cloudy
3:55 AM 21.2 °F 8.9 °F 10.4 °F 63% 29.72 in 10.0 mi West 12.7 mph 19.6 mph N/A   Partly Cloudy
4:15 AM 21.2 °F 10.9 °F 10.4 °F 63% 29.73 in 10.0 mi WNW 9.2 mph - N/A   Mostly Cloudy
4:35 AM 19.4 °F 6.6 °F 10.4 °F 68% 29.75 in 10.0 mi West 12.7 mph 21.9 mph N/A   Overcast
4:55 AM 19.4 °F 7.2 °F 14.0 °F 80% 29.76 in 2.0 mi West 11.5 mph 16.1 mph N/A   Overcast
5:15 AM 19.4 °F 7.9 °F 12.2 °F 74% 29.76 in 10.0 mi West 10.4 mph 16.1 mph N/A   Mostly Cloudy
5:35 AM 19.4 °F 7.9 °F 12.2 °F 74% 29.78 in 10.0 mi West 10.4 mph 17.3 mph N/A   Scattered Clouds
5:55 AM 19.4 °F 7.9 °F 10.4 °F 68% 29.79 in 10.0 mi West 10.4 mph 17.3 mph N/A   Partly Cloudy
6:15 AM 19.4 °F 7.9 °F 12.2 °F 74% 29.80 in 10.0 mi West 10.4 mph - N/A   Mostly Cloudy
6:35 AM 17.6 °F 6.4 °F 10.4 °F 73% 29.81 in 10.0 mi West 9.2 mph 19.6 mph N/A   Mostly Cloudy
6:55 AM 17.6 °F 7.3 °F 10.4 °F 73% 29.82 in 10.0 mi WSW 8.1 mph - N/A   Scattered Clouds
7:15 AM 17.6 °F 7.3 °F 10.4 °F 73% 29.83 in 10.0 mi WNW 8.1 mph - N/A   Partly Cloudy
7:35 AM 15.8 °F 4.2 °F 6.8 °F 68% 29.84 in 10.0 mi WNW 9.2 mph 20.7 mph N/A   Clear
7:55 AM 15.8 °F 5.1 °F 5.0 °F 62% 29.86 in 10.0 mi WNW 8.1 mph - N/A   Clear
8:15 AM 15.8 °F 5.1 °F -0.4 °F 49% 29.87 in 10.0 mi WNW 8.1 mph - N/A   Clear
8:35 AM 15.8 °F 5.1 °F -0.4 °F 49% 29.89 in 10.0 mi NW 8.1 mph 16.1 mph N/A   Clear
8:55 AM 15.8 °F 3.4 °F -0.4 °F 49% 29.91 in 10.0 mi West 10.4 mph 16.1 mph N/A   Clear
9:15 AM 15.8 °F 6.1 °F -0.4 °F 49% 29.92 in 10.0 mi West 6.9 mph - N/A   Clear
9:35 AM 15.8 °F 2.7 °F -0.4 °F 49% 29.92 in 10.0 mi West 11.5 mph 17.3 mph N/A   Clear
9:55 AM 15.8 °F 5.1 °F -0.4 °F 49% 29.93 in 10.0 mi WNW 8.1 mph - N/A   Clear
10:15 AM 15.8 °F 4.2 °F -0.4 °F 49% 29.93 in 10.0 mi West 9.2 mph 17.3 mph N/A   Clear
10:35 AM 15.8 °F 4.2 °F 3.2 °F 58% 29.94 in 10.0 mi West 9.2 mph - N/A   Clear
10:55 AM 15.8 °F 1.4 °F -0.4 °F 49% 29.94 in 10.0 mi West 13.8 mph 18.4 mph N/A   Clear
11:15 AM 17.6 °F 6.4 °F -0.4 °F 45% 29.93 in 10.0 mi West 9.2 mph 17.3 mph N/A   Partly Cloudy
11:35 AM 17.6 °F 5.0 °F -0.4 °F 45% 29.93 in 10.0 mi West 11.5 mph 18.4 mph N/A   Clear
11:55 AM 17.6 °F 6.4 °F -0.4 °F 45% 29.93 in 10.0 mi WNW 9.2 mph - N/A   Clear
12:15 PM 17.6 °F 3.7 °F -0.4 °F 45% 29.93 in 10.0 mi West 13.8 mph 21.9 mph N/A   Clear
12:35 PM 17.6 °F 5.0 °F -0.4 °F 45% 29.93 in 10.0 mi West 11.5 mph 20.7 mph N/A   Scattered Clouds
12:55 PM 17.6 °F 4.3 °F -2.2 °F 42% 29.93 in 10.0 mi West 12.7 mph 21.9 mph N/A   Partly Cloudy
1:15 PM 17.6 °F 2.2 °F -0.4 °F 45% 29.93 in 9.0 mi West 17.3 mph 23.0 mph N/A   Scattered Clouds
1:35 PM 17.6 °F 4.3 °F -0.4 °F 45% 29.94 in 10.0 mi West 12.7 mph 21.9 mph N/A   Mostly Cloudy
1:55 PM 17.6 °F 5.0 °F -0.4 °F 45% 29.94 in 10.0 mi WNW 11.5 mph 17.3 mph N/A   Overcast
2:15 PM 17.6 °F 6.4 °F 1.4 °F 49% 29.95 in 10.0 mi NW 9.2 mph 18.4 mph N/A   Overcast
2:35 PM 17.6 °F 6.4 °F 1.4 °F 49% 29.95 in 10.0 mi WNW 9.2 mph 19.6 mph N/A   Overcast
2:55 PM 19.4 °F 8.6 °F 1.4 °F 46% 29.97 in 10.0 mi WNW 9.2 mph 17.3 mph N/A   Overcast
3:15 PM 19.4 °F 5.0 °F -0.4 °F 42% 29.98 in 10.0 mi West 16.1 mph 24.2 mph N/A   Overcast
3:35 PM 17.6 °F 3.7 °F 1.4 °F 49% 29.99 in 10.0 mi WNW 13.8 mph 21.9 mph N/A   Mostly Cloudy
3:55 PM 17.6 °F 3.7 °F -0.4 °F 45% 29.99 in 10.0 mi West 13.8 mph 20.7 mph N/A   Scattered Clouds
4:15 PM 17.6 °F 5.0 °F 1.4 °F 49% 30.01 in 10.0 mi WNW 11.5 mph 19.6 mph N/A   Mostly Cloudy
4:35 PM 15.8 °F 5.1 °F -0.4 °F 49% 30.02 in 10.0 mi WNW 8.1 mph - N/A   Overcast
4:55 PM 15.8 °F 5.1 °F 1.4 °F 53% 30.03 in 10.0 mi WNW 8.1 mph - N/A   Overcast
5:15 PM 15.8 °F 6.1 °F 1.4 °F 53% 30.04 in 10.0 mi WNW 6.9 mph - N/A   Overcast
5:35 PM 14.0 °F 2.9 °F 1.4 °F 57% 30.05 in 10.0 mi NNW 8.1 mph - N/A   Mostly Cloudy
5:55 PM 12.2 °F 0.7 °F 1.4 °F 62% 30.05 in 10.0 mi WNW 8.1 mph - N/A   Partly Cloudy
6:15 PM 12.2 °F -0.2 °F -0.4 °F 57% 30.06 in 10.0 mi NNW 9.2 mph - N/A   Clear
6:35 PM 12.2 °F 4.3 °F 3.2 °F 67% 30.07 in 10.0 mi WNW 4.6 mph - N/A   Clear
6:55 PM 12.2 °F 2.9 °F -0.4 °F 57% 30.08 in 10.0 mi NW 5.8 mph - N/A   Clear
7:15 PM 12.2 °F 4.3 °F -0.4 °F 57% 30.08 in 10.0 mi NW 4.6 mph - N/A   Clear
7:35 PM 10.4 °F 4.0 °F -2.2 °F 57% 30.10 in 10.0 mi West 3.5 mph - N/A   Clear
7:55 PM 12.2 °F 1.7 °F -4.0 °F 48% 30.10 in 10.0 mi SW 6.9 mph 16.1 mph N/A   Clear
8:15 PM 12.2 °F 0.7 °F -2.2 °F 53% 30.11 in 10.0 mi WNW 8.1 mph - N/A   Clear
8:35 PM 10.4 °F 2.2 °F -7.6 °F 44% 30.12 in 10.0 mi NNW 4.6 mph - N/A   Clear
8:55 PM 10.4 °F -0.4 °F -7.6 °F 44% 30.12 in 10.0 mi NW 6.9 mph - N/A   Clear
9:15 PM 8.6 °F -4.7 °F -5.8 °F 52% 30.13 in 10.0 mi NW 9.2 mph - N/A   Clear
9:35 PM 6.8 °F -5.9 °F -4.0 °F 61% 30.14 in 10.0 mi NNW 8.1 mph - N/A   Clear
9:55 PM 6.8 °F -5.9 °F -5.8 °F 56% 30.15 in 10.0 mi North 8.1 mph - N/A   Clear
10:15 PM 6.8 °F -4.8 °F -4.0 °F 61% 30.16 in 10.0 mi North 6.9 mph - N/A   Clear
10:35 PM 5.0 °F -4.1 °F -5.8 °F 61% 30.16 in 10.0 mi North 4.6 mph - N/A   Clear
10:55 PM 3.2 °F -6.2 °F -5.8 °F 66% 30.16 in 10.0 mi North 4.6 mph - N/A   Clear
11:15 PM 3.2 °F -6.2 °F -2.2 °F 78% 30.16 in 10.0 mi NNW 4.6 mph - N/A   Clear
11:35 PM 3.2 °F - -4.0 °F 72% 30.16 in 10.0 mi Calm Calm - N/A   Clear
11:55 PM 3.2 °F - -4.0 °F 72% 30.16 in 10.0 mi Calm Calm - N/A   Clear